DW5656 Weather Reports


time (UTC)temp
C
wind
direction
speed
KPH
gust
KPH
rain 1hr
cm
rain 24hr
cm
rain mn
cm
humidity
%
barometer
mb
20260905051846 28 49 3.2 8.0 0.00 0.00 0.00 64 1016.5
20260905050925 28 33 4.8 8.0 0.00 0.00 0.00 64 1016.5
20260905050025 28 25 3.2 9.7 0.00 0.00 0.00 64 1016.4
20260905045125 28 10 3.2 6.4 0.00 0.00 0.00 64 1016.4
20260905044225 29 44 4.8 9.7 0.00 0.00 0.00 63 1016.4
20260905043325 29 31 3.2 9.7 0.00 0.00 0.00 62 1016.1
20260905042425 29 37 3.2 4.8 0.00 0.00 0.00 63 1016.1
20260905041525 29 39 3.2 6.4 0.00 0.00 0.00 63 1016.1
20260905040625 29 65 6.4 9.7 0.00 0.00 0.00 63 1016.1
20260905035725 30 73 4.8 12.9 0.00 0.00 0.00 62 1016.0
20260905034825 30 69 4.8 9.7 0.00 0.00 0.00 61 1016.1
20260905033925 30 40 4.8 11.3 0.00 0.00 0.00 62 1015.9
20260905033046 30 38 3.2 8.0 0.00 0.00 0.00 62 1015.7
20260905032125 30 28 3.2 6.4 0.00 0.00 0.00 62 1015.8
20260905031225 30 21 3.2 8.0 0.00 0.00 0.00 62 1015.7
20260905030325 30 278 1.6 4.8 0.00 0.00 0.00 63 1015.9
20260905025424 30 265 0.0 1.6 0.00 0.00 0.00 63 1016.2
20260905024524 29 263 3.2 3.2 0.00 0.00 0.00 63 1016.3
20260905023645 29 253 3.2 12.9 0.00 0.00 0.00 64 1016.4
20260905022724 30 302 1.6 4.8 0.00 0.00 0.00 63 1016.3
20260905021845 30 269 1.6 4.8 0.00 0.00 0.00 63 1016.1
20260905020924 30 286 1.6 8.0 0.00 0.00 0.00 62 1016.5
20260905020024 30 236 3.2 4.8 0.00 0.00 0.00 62 1016.3
20260905015145 30 253 3.2 8.0 0.00 0.00 0.00 62 1016.5
20260905014224 30 237 3.2 6.4 0.00 0.00 0.00 60 1016.2
20260905013324 30 180 3.2 11.3 0.00 0.00 0.00 59 1016.3
20260905012424 30 191 4.8 9.7 0.00 0.00 0.00 59 1016.5
20260905011524 30 182 4.8 11.3 0.00 0.00 0.00 59 1016.4
20260905010645 30 173 3.2 9.7 0.00 0.00 0.00 60 1016.4
20260905005724 30 173 4.8 6.4 0.00 0.00 0.00 61 1016.3
20260905004824 30 243 3.2 11.3 0.00 0.00 0.00 62 1016.5
20260905003924 30 101 3.2 6.4 0.00 0.00 0.00 60 1016.6
20260905003045 30 101 1.6 4.8 0.00 0.00 0.00 61 1016.7
20260905002124 30 159 4.8 6.4 0.00 0.00 0.00 61 1016.6
20260905001224 30 234 6.4 14.5 0.00 0.00 0.00 61 1017.1
20260905000325 30 225 4.8 14.5 0.00 0.00 0.00 60 1017.3
20260904235445 31 203 6.4 12.9 0.00 0.00 0.00 58 1016.9
20260904234525 31 161 8.0 17.7 0.00 0.00 0.00 57 1016.8
20260904233624 32 112 6.4 17.7 0.00 0.00 0.00 56 1016.3
20260904232724 32 72 3.2 11.3 0.00 0.00 0.00 54 1016.4
20260904231824 32 101 4.8 11.3 0.00 0.00 0.00 51 1016.8
20260904230924 32 226 1.6 8.0 0.00 0.00 0.00 52 1016.8
20260904230024 32 213 1.6 3.2 0.00 0.00 0.00 53 1016.6
20260904225124 32 223 6.4 8.0 0.00 0.00 0.00 53 1016.8
20260904224224 32 294 8.0 14.5 0.00 0.00 0.00 54 1016.6
20260904223324 32 245 6.4 17.7 0.00 0.00 0.00 53 1016.8
20260904222424 32 247 4.8 14.5 0.00 0.00 0.00 50 1016.4
20260904221524 32 337 4.8 11.3 0.00 0.00 0.00 53 1016.3
20260904220624 33 207 4.8 14.5 0.00 0.00 0.00 52 1017.2
20260904215724 34 285 3.2 9.7 0.00 0.00 0.00 46 1016.9
20260904214824 34 22 3.2 8.0 0.00 0.00 0.00 44 1016.6
20260904213924 33 2 3.2 8.0 0.00 0.00 0.00 45 1016.2
20260904213024 33 58 4.8 12.9 0.00 0.00 0.00 48 1016.2
20260904212145 33 67 1.6 12.9 0.00 0.00 0.00 50 1016.3
20260904211245 33 256 3.2 6.4 0.00 0.00 0.00 50 1016.9
20260904210323 33 235 4.8 9.7 0.00 0.00 0.00 50 1017.0
20260904205424 33 234 6.4 11.3 0.00 0.00 0.00 48 1016.9
20260904204523 34 246 4.8 14.5 0.00 0.00 0.00 45 1017.1
20260904203623 35 291 3.2 6.4 0.00 0.00 0.00 43 1016.8
20260904202723 35 305 3.2 12.9 0.00 0.00 0.00 43 1016.6
20260904201823 35 320 4.8 12.9 0.00 0.00 0.00 43 1016.4
20260904200923 35 332 6.4 9.7 0.00 0.00 0.00 43 1016.3
20260904200023 35 327 6.4 14.5 0.00 0.00 0.00 42 1016.2
20260904195123 35 350 6.4 12.9 0.00 0.00 0.00 42 1016.1
20260904194223 35 354 6.4 12.9 0.00 0.00 0.00 43 1016.0
20260904193323 35 333 8.0 17.7 0.00 0.00 0.00 43 1016.0
20260904192423 35 331 6.4 16.1 0.00 0.00 0.00 43 1015.9
20260904191544 35 321 8.0 17.7 0.00 0.00 0.00 45 1015.9
20260904190623 35 313 8.0 20.9 0.00 0.00 0.00 45 1015.8
20260904185723 35 309 8.0 17.7 0.00 0.00 0.00 45 1015.8
20260904184823 35 303 6.4 24.1 0.00 0.00 0.00 46 1015.8
20260904183923 35 289 6.4 17.7 0.00 0.00 0.00 47 1015.9
20260904183023 35 293 9.7 19.3 0.00 0.00 0.00 47 1016.0
20260904182123 35 270 9.7 29.0 0.00 0.00 0.00 47 1016.0
20260904181223 35 269 4.8 20.9 0.00 0.00 0.00 50 1016.0
20260904180323 34 236 4.8 9.7 0.00 0.00 0.00 59 1016.0
20260904175423 34 224 8.0 14.5 0.00 0.00 0.00 59 1016.0
20260904174524 35 222 9.7 17.7 0.00 0.00 0.00 58 1016.0
20260904173623 35 221 9.7 17.7 0.00 0.00 0.00 56 1015.9
20260904172723 35 213 9.7 20.9 0.00 0.00 0.00 53 1015.8
20260904171823 35 215 9.7 20.9 0.00 0.00 0.00 52 1015.8
20260904170923 36 221 8.0 16.1 0.00 0.00 0.00 53 1015.8
20260904170044 36 215 8.0 16.1 0.00 0.00 0.00 53 1015.8
20260904165123 37 210 8.0 16.1 0.00 0.00 0.00 52 1015.9
20260904164223 37 221 8.0 16.1 0.00 0.00 0.00 51 1015.9
20260904163323 37 216 6.4 14.5 0.00 0.00 0.00 50 1016.0
20260904162423 38 239 3.2 14.5 0.00 0.00 0.00 46 1015.8
20260904161523 40 262 3.2 9.7 0.00 0.00 0.00 41 1015.9
20260904160623 39 264 3.2 11.3 0.00 0.00 0.00 38 1016.0
20260904155744 38 276 4.8 12.9 0.00 0.00 0.00 39 1016.0
20260904154823 39 302 3.2 8.0 0.00 0.00 0.00 39 1016.2
20260904153944 38 310 3.2 11.3 0.00 0.00 0.00 39 1016.2
20260904153023 38 275 3.2 9.7 0.00 0.00 0.00 40 1016.3
20260904152122 38 307 4.8 9.7 0.00 0.00 0.00 40 1016.4
20260904151223 38 250 4.8 11.3 0.00 0.00 0.00 42 1016.6
20260904150323 38 272 3.2 11.3 0.00 0.00 0.00 42 1016.6
20260904145423 37 271 4.8 6.4 0.00 0.00 0.00 43 1016.6
20260904144544 37 288 1.6 11.3 0.00 0.00 0.00 44 1016.8
20260904143622 37 355 3.2 6.4 0.00 0.00 0.00 45 1016.9
20260904142722 37 265 3.2 9.7 0.00 0.00 0.00 44 1017.2
20260904141822 36 298 3.2 4.8 0.00 0.00 0.00 47 1017.4
20260904140922 36 287 3.2 11.3 0.00 0.00 0.00 49 1017.5
20260904140022 36 313 3.2 11.3 0.00 0.00 0.00 49 1017.7
20260904135122 35 246 3.2 8.0 0.00 0.00 0.00 51 1017.8
20260904134222 35 232 4.8 8.0 0.00 0.00 0.00 51 1018.0
20260904133322 34 244 4.8 11.3 0.00 0.00 0.00 52 1018.2
20260904132422 34 273 3.2 9.7 0.00 0.00 0.00 52 1018.1
20260904131522 33 79 3.2 8.0 0.00 0.00 0.00 53 1018.1
20260904130643 33 146 3.2 11.3 0.00 0.00 0.00 54 1018.2
20260904125722 33 210 3.2 6.4 0.00 0.00 0.00 55 1018.5
20260904124822 33 238 3.2 6.4 0.00 0.00 0.00 56 1018.7
20260904123922 33 279 3.2 9.7 0.00 0.00 0.00 56 1018.6
20260904123022 33 293 1.6 4.8 0.00 0.00 0.00 56 1018.8
20260904122143 32 187 1.6 4.8 0.00 0.00 0.00 57 1019.0
20260904121222 32 174 1.6 6.4 0.00 0.00 0.00 58 1019.2
20260904120322 31 203 1.6 8.0 0.00 0.00 0.00 61 1019.2
20260904115422 30 178 3.2 4.8 0.00 0.00 0.00 63 1019.4
20260904114522 30 223 3.2 6.4 0.00 0.00 0.00 64 1019.3
20260904113622 30 219 3.2 8.0 0.00 0.00 0.00 66 1019.5
20260904112722 30 227 3.2 8.0 0.00 0.00 0.00 66 1019.7
20260904111822 30 223 3.2 8.0 0.00 0.00 0.00 66 1019.8
20260904110922 30 252 4.8 9.7 0.00 0.00 0.00 66 1019.9
20260904110022 30 238 3.2 8.0 0.00 0.00 0.00 67 1019.9
20260904105122 30 197 3.2 8.0 0.00 0.00 0.00 68 1020.0
20260904104222 29 209 3.2 8.0 0.00 0.00 0.00 69 1020.0
20260904103322 29 209 3.2 8.0 0.00 0.00 0.00 69 1020.1
20260904102443 30 183 3.2 8.0 0.00 0.00 0.00 68 1020.2
20260904101522 29 137 3.2 11.3 0.00 0.00 0.00 70 1020.3
20260904100622 30 338 3.2 6.4 0.00 0.00 0.00 70 1020.3
20260904095722 28 202 1.6 8.0 0.00 0.00 0.00 72 1020.6
20260904094822 28 271 1.6 4.8 0.00 0.00 0.00 74 1020.6
20260904093943 27 220 1.6 4.8 0.00 0.00 0.00 76 1020.6
20260904093021 27 199 3.2 9.7 0.00 0.00 0.00 76 1020.6
20260904092143 27 152 1.6 8.0 0.00 0.00 0.00 76 1020.6
20260904091221 27 179 1.6 6.4 0.00 0.00 0.00 77 1020.5
20260904090321 26 160 3.2 6.4 0.00 0.00 0.00 78 1020.6
20260904085421 26 149 3.2 9.7 0.00 0.00 0.00 80 1020.5
20260904084521 26 199 3.2 9.7 0.00 0.00 0.00 81 1020.4
20260904083642 26 234 3.2 9.7 0.00 0.00 0.00 82 1020.7
20260904082721 25 215 4.8 9.7 0.00 0.00 0.00 82 1020.5
20260904081821 25 216 3.2 9.7 0.00 0.00 0.00 82 1020.5
20260904080921 25 214 4.8 9.7 0.00 0.00 0.00 83 1020.2
20260904080021 25 222 4.8 8.0 0.00 0.00 0.00 83 1020.2
20260904075121 25 187 3.2 8.0 0.00 0.00 0.00 82 1020.0
20260904074221 25 224 3.2 8.0 0.00 0.00 0.00 83 1020.1
20260904073321 25 231 3.2 11.3 0.00 0.00 0.00 83 1020.1
20260904072421 25 217 3.2 11.3 0.00 0.00 0.00 83 1020.0
20260904071542 25 230 3.2 8.0 0.00 0.00 0.00 83 1020.0
20260904070642 25 225 3.2 9.7 0.00 0.00 0.00 83 1020.1
20260904065721 25 237 3.2 8.0 0.00 0.00 0.00 83 1020.0
20260904064821 25 259 3.2 8.0 0.00 0.00 0.00 83 1020.0
20260904063921 25 278 3.2 6.4 0.00 0.00 0.00 83 1019.9
20260904063042 24 250 3.2 8.0 0.00 0.00 0.00 83 1019.9
20260904062121 24 249 4.8 11.3 0.00 0.00 0.00 83 1020.0
20260904061221 24 242 3.2 8.0 0.00 0.00 0.00 83 1019.8
20260904060342 24 241 4.8 6.4 0.00 0.00 0.00 83 1019.7
20260904055421 24 248 4.8 14.5 0.00 0.00 0.00 82 1019.7
20260904054521 24 244 4.8 14.5 0.00 0.00 0.00 82 1019.6
20260904053621 25 231 4.8 12.9 0.00 0.00 0.00 80 1019.7
20260904052721 25 239 4.8 14.5 0.00 0.00 0.00 79 1019.6